Content
SEND FEEDBACK

Daily
Averages
Monthly
Summary
United States of America

STATEN ISLAND, NEW YORK


Home > North America > United States > New York
Elevation: 46 meters     Latitude: 40 35N     Longitude: 074 09W

WEATHER
 
SELECT A DAY
Number of Records: 189,740;   Date Range: 1/1/95 - 8/12/14
 
SHARE

PRINT THIS DATA

[ ← Previous Day ]
WEATHER ALMANAC - 19 JANUARY, 2013
[ Next Day → ]
[ °F ]   °C
Weather ElementAverageHighLow
Temperature4.9 °C11.1 °C (3:51 pm)-2 °C (1:51 am)
Dewpoint-4.9 °C-2.2 °C (10:51 pm)-11 °C (1:51 am)
Humidity50.4 %67 % (6:51 am)32 % (3:51 pm)
Barometer1021.7 hPa1029.5 hPa (1:51 am)1013.5 hPa (11:51 pm)
Wind Speed25.7 km/h37 km/h (10:51 am)
Wind Gust46.3 km/h (10:51 am)
Weather ElementAverage
Visibility16.1 km
Wind DirectionSSW (213.5 °)

Weather ElementTotal
Precipitation---
Heating Degree Days13.8 (Base 18.3)
Averaged from 23 records on 19 January, 2013
WEATHER CONDITIONS BREAKOUT
WIND DIRECTION BREAKOUT
WEATHER BY HOUR - 19 JANUARY, 2013
[ °F ]   °C
Local TimeTemperatureDewpointHumidityBarometerVisibilityWind DirectionWind SpeedGust SpeedPrecipitationEventsConditions
1:51 AM-2 °C-11 °C51 %1029.5 hPa16.1 kmSSW (210°)18.5 km/hPartly Cloudy
2:51 AM-1.7 °C-10 °C54 %1028.8 hPa16.1 kmSSW (200°)22.2 km/hPartly Cloudy
3:51 AM-1.1 °C-8.9 °C56 %1027.4 hPa16.1 kmSSW (200°)22.2 km/hPartly Cloudy
4:51 AM-1.7 °C-8.3 °C61 %1027.1 hPa16.1 kmSSW (210°)14.8 km/hMostly Cloudy
5:51 AM-1.1 °C-7.2 °C64 %1026.8 hPa16.1 kmSW (220°)16.7 km/hMostly Cloudy
6:51 AM-0.6 °C-6.1 °C67 %1026.4 hPa16.1 kmSSW (210°)16.7 km/hMostly Cloudy
7:51 AM0 °C-5.6 °C66 %1026.1 hPa16.1 kmSW (230°)22.2 km/hMostly Cloudy
8:51 AM1.7 °C-4.4 °C64 %1026.1 hPa16.1 kmSSW (210°)29.6 km/h38.9 km/hMostly Cloudy
9:51 AM3.3 °C-3.9 °C60 %1025.4 hPa16.1 kmSW (220°)27.8 km/hScattered Clouds
10:51 AM6.1 °C-3.9 °C49 %1024.4 hPa16.1 kmSW (220°)37 km/h46.3 km/hScattered Clouds
11:51 AM7.8 °C-3.9 °C44 %1022 hPa16.1 kmSW (230°)33.3 km/hScattered Clouds
12:51 PM8.9 °C-3.9 °C41 %1020.7 hPa16.1 kmSW (220°)37 km/h44.4 km/hMostly Cloudy
1:51 PM10 °C-4.4 °C36 %1019.6 hPa16.1 kmSW (220°)29.6 km/h44.4 km/hMostly Cloudy
2:51 PM10.6 °C-5 °C33 %1019 hPa16.1 kmSW (220°)31.5 km/h40.7 km/hMostly Cloudy
3:51 PM11.1 °C-5 °C32 %1018.3 hPa16.1 kmSW (220°)31.5 km/h40.7 km/hMostly Cloudy
4:51 PM10 °C-3.3 °C39 %1017.6 hPa16.1 kmSSW (200°)20.4 km/hScattered Clouds
5:51 PM8.9 °C-2.8 °C44 %1017.6 hPa16.1 kmSSW (200°)22.2 km/hMostly Cloudy
6:51 PM8.3 °C-2.8 °C46 %1017.3 hPa16.1 kmSSW (200°)24.1 km/h37 km/hMostly Cloudy
7:51 PM8.3 °C-2.8 °C46 %1016.9 hPa16.1 kmSSW (210°)20.4 km/h38.9 km/hMostly Cloudy
8:51 PM7 °C-3 °C49 %1016.3 hPa16.1 kmSSW (210°)29.6 km/hScattered Clouds
9:51 PM7.2 °C-2.8 °C49 %1015.6 hPa16.1 kmSSW (210°)29.6 km/h42.6 km/hMostly Cloudy
10:51 PM6.7 °C-2.2 °C53 %1014.6 hPa16.1 kmSW (220°)27.8 km/h37 km/hMostly Cloudy
11:51 PM6.1 °C-2.2 °C56 %1013.5 hPa16.1 kmSW (220°)25.9 km/h40.7 km/hMostly Cloudy
Hourly data recorded from KEWR, located 0 kilometers away from Staten Island, New York







STORIES FROM OUR PARTNERS